Overview Statistics Trail Chart Weather Telemetry Raw packets
 

This is the latest recevied weather packets stored in our database for station/object KD7CIH. If no packets are shown the sender has not sent any weather packets the latest 10 day(s).

<< 35 36 37 38 39 40 41 >>
Time Temp. Humidity Pressure Rain* Wind** Luminosity Snow
1788458135 21.67° C 16% 1013.3 hPa 0 mm - - -
1788457857 21.67° C 17% 1013.3 hPa 0 mm - - -
1788457535 21.11° C 15% 1013.3 hPa 0 mm - - -
1788457236 21.11° C 14% 1013.1 hPa 0 mm - - -
1788456934 21.11° C 15% 1013.1 hPa 0 mm - - -
1788456634 21.11° C 15% 1013.3 hPa 0 mm - - -
1788456333 21.11° C 14% 1013.1 hPa 0 mm - - -
1788456035 21.67° C 17% 1013.3 hPa 0 mm - - -
1788455733 21.11° C 19% 1013.3 hPa 0 mm - - -
1788455560 21.11° C 18% 1013.1 hPa 0 mm - - -
1788455134 21.11° C 18% 1013.1 hPa 0 mm - - -
1788454960 20.56° C 18% 1013.1 hPa 0 mm - - -
1788454527 20.56° C 16% 1013.3 hPa 0 mm - - -
1788454349 20.56° C 17% 1013.1 hPa 0 mm - - -
1788453915 20.56° C 18% 1013.1 hPa 0 mm - - -
1788453608 20.56° C 18% 1013 hPa 0 mm - - -
1788453308 20.56° C 18% 1013.1 hPa 0 mm - - -
1788453009 20.56° C 18% 1013 hPa 0 mm - - -
1788452836 20.56° C 18% 1013.1 hPa 0 mm - - -
1788452408 20° C 20% 1013.1 hPa 0 mm - - -
1788452110 20° C 20% 1013.1 hPa 0 mm - - -
1788451809 19.44° C 23% 1013.1 hPa 0 mm - - -
1788451508 19.44° C 23% 1013.3 hPa 0 mm - - -
1788451206 19.44° C 24% 1013 hPa 0 mm - - -
1788450908 18.89° C 22% 1013.1 hPa 0 mm - - -

* Rain latest hour (hover to see other rain measurements)
** Current wind speed in m/s (hover to see current wind gust speed)